EW4652 Weather Reports


Display with metric or nautical units.
time (UTC)temp
F
wind
direction
speed
MPH
gust
MPH
rain 1hr
in
rain 24hr
in
rain mn
in
humidity
%
barometer
mb
20260506221606 48 294 12.0 19.0 0.00 0.00 0.00 44 1018.0
20260506220002 46 327 10.0 18.0 0.00 0.00 0.00 45 1018.2
20260506214502 47 330 9.0 17.0 0.00 0.00 0.00 44 1018.3
20260506213100 47 318 8.0 23.0 0.00 0.00 0.00 45 1018.4
20260506213000 47 309 10.0 23.0 0.00 0.00 0.00 44 1018.4
20260506211557 47 298 11.0 18.0 0.00 0.00 0.00 45 1018.4
20260506210056 46 346 10.0 20.0 0.00 0.00 0.00 46 1018.5
20260506204554 45 309 14.0 19.0 0.00 0.00 0.00 46 1018.8
20260506203054 45 308 12.0 23.0 0.00 0.00 0.00 47 1018.9
20260506201607 45 308 12.0 19.0 0.00 0.00 0.00 47 1018.9
20260506200050 45 310 14.0 22.0 0.00 0.00 0.00 47 1019.0
20260506194552 45 300 11.0 21.0 0.00 0.00 0.00 47 1019.1
20260506193052 44 311 14.0 22.0 0.00 0.00 0.00 45 1019.1
20260506191547 45 291 13.0 19.0 0.00 0.00 0.00 50 1019.1
20260506190046 44 322 9.0 21.0 0.00 0.00 0.00 48 1019.1
20260506184550 44 5 11.0 24.0 0.00 0.00 0.00 47 1019.0
20260506183044 44 292 14.0 20.0 0.00 0.00 0.00 49 1019.1
20260506181543 44 317 11.0 18.0 0.00 0.00 0.00 49 1019.2
20260506180041 43 299 10.0 21.0 0.00 0.00 0.00 49 1019.3
20260506174641 43 291 9.0 14.0 0.00 0.00 0.00 48 1019.1
20260506173051 43 311 9.0 15.0 0.00 0.00 0.00 48 1019.2
20260506171551 43 298 7.0 14.0 0.00 0.00 0.00 51 1019.4
20260506170039 42 279 9.0 17.0 0.00 0.00 0.00 49 1019.4
20260506164537 42 325 11.0 15.0 0.00 0.00 0.00 48 1019.3
20260506163051 42 322 11.0 19.0 0.00 0.00 0.00 48 1019.2
20260506161541 43 340 6.0 17.0 0.00 0.00 0.00 49 1019.1
20260506160034 43 317 11.0 17.0 0.00 0.00 0.00 49 1019.0
20260506154537 43 305 9.0 18.0 0.00 0.00 0.00 48 1018.9
20260506153030 43 318 8.0 15.0 0.00 0.00 0.00 48 1018.9
20260506151528 43 329 9.0 17.0 0.00 0.00 0.00 49 1018.6
20260506150031 43 360 8.0 15.0 0.00 0.00 0.00 49 1018.5
20260506144524 43 336 9.0 14.0 0.00 0.00 0.00 49 1018.5
20260506143022 42 319 8.0 17.0 0.00 0.00 0.00 51 1018.5
20260506141520 42 340 10.0 16.0 0.00 0.00 0.00 52 1018.8
20260506140017 41 308 5.0 15.0 0.00 0.00 0.00 54 1018.7
20260506134514 40 333 5.0 12.0 0.00 0.00 0.00 57 1018.7
20260506133011 40 5 5.0 10.0 0.00 0.00 0.00 57 1018.6
20260506131507 39 295 4.0 10.0 0.00 0.00 0.00 59 1018.4
20260506130005 38 311 4.0 9.0 0.00 0.00 0.00 60 1018.4
20260506124600 37 336 3.0 7.0 0.00 0.00 0.00 61 1018.3
20260506123054 36 327 3.0 6.0 0.00 0.00 0.00 65 1018.1
20260506121550 34 310 3.0 5.0 0.00 0.00 0.00 67 1018.0
20260506120050 33 313 2.0 5.0 0.00 0.00 0.00 69 1017.7
20260506114546 32 25 0.0 2.0 0.00 0.00 0.00 71 1017.5
20260506113036 30 25 0.0 3.0 0.00 0.00 0.00 73 1017.3
20260506111533 30 72 1.0 3.0 0.00 0.00 0.00 71 1017.0
20260506110030 31 317 2.0 4.0 0.00 0.00 0.00 72 1017.2
20260506104525 31 309 0.0 3.0 0.00 0.00 0.00 69 1017.1
20260506103024 32 309 1.0 3.0 0.00 0.00 0.00 70 1017.0
20260506101524 31 309 1.0 3.0 0.00 0.00 0.00 70 1017.1
20260506100020 32 309 2.0 3.0 0.00 0.00 0.00 67 1016.9
20260506094516 34 309 3.0 5.0 0.00 0.00 0.00 66 1016.7
20260506093018 34 316 2.0 5.0 0.00 0.00 0.00 65 1016.6
20260506091513 35 321 2.0 5.0 0.00 0.00 0.00 64 1016.5
20260506090008 35 308 3.0 6.0 0.00 0.00 0.00 63 1016.3
20260506084511 36 309 3.0 6.0 0.00 0.00 0.00 62 1016.4
20260506083003 36 298 4.0 8.0 0.00 0.00 0.00 62 1016.3
20260506081504 36 330 2.0 6.0 0.00 0.00 0.00 62 1016.2
20260506080112 36 322 4.0 8.0 0.00 0.00 0.00 61 1016.1
20260506073110 37 306 4.0 9.0 0.00 0.00 0.00 59 1016.2
20260506071552 37 319 4.0 8.0 0.00 0.00 0.00 58 1015.9
20260506061554 40 311 4.0 9.0 0.00 0.00 0.00 54 1015.5
20260506044524 40 318 3.0 6.0 0.00 0.00 0.00 52 1014.8
20260506043024 41 321 0.0 3.0 0.00 0.00 0.00 50 1014.7
20260506041524 41 325 2.0 6.0 0.00 0.00 0.00 50 1014.7
20260506040024 42 322 1.0 5.0 0.00 0.00 0.00 50 1014.7
20260506034524 42 319 3.0 5.0 0.00 0.00 0.00 48 1014.7
20260506033022 43 328 1.0 6.0 0.00 0.00 0.00 47 1014.7
20260506031521 43 318 2.0 5.0 0.00 0.00 0.00 47 1014.6
20260506030020 44 321 3.0 6.0 0.00 0.00 0.00 46 1014.5
20260506024518 45 326 3.0 6.0 0.00 0.00 0.00 44 1014.3
20260506023015 45 335 3.0 10.0 0.00 0.00 0.00 44 1014.1
20260506021514 46 318 4.0 8.0 0.00 0.00 0.00 44 1013.9
20260506020023 47 342 5.0 9.0 0.00 0.00 0.00 42 1013.6
20260506014511 47 301 4.0 10.0 0.00 0.00 0.00 40 1013.5
20260506013009 48 302 6.0 13.0 0.00 0.00 0.00 40 1013.2
20260506011507 48 324 5.0 11.0 0.00 0.00 0.00 39 1013.0
20260506010006 49 310 6.0 11.0 0.00 0.00 0.00 38 1012.9
20260506004514 49 310 8.0 14.0 0.00 0.00 0.00 38 1012.9
20260506003004 49 304 7.0 13.0 0.00 0.00 0.00 39 1012.7
20260506001504 50 309 7.0 13.0 0.00 0.00 0.00 38 1012.6
20260506000002 49 327 7.0 13.0 0.00 0.00 0.00 39 1012.5
20260505234501 49 302 7.0 16.0 0.00 0.00 0.00 40 1012.6
20260505233100 49 313 9.0 14.0 0.00 0.00 0.00 40 1012.5
20260505231601 50 315 9.0 18.0 0.00 0.00 0.00 39 1012.5
20260505230059 50 9 8.0 19.0 0.00 0.00 0.00 41 1012.3
20260505224559 50 331 7.0 16.0 0.00 0.00 0.00 39 1012.4
20260505223104 51 302 6.0 17.0 0.00 0.00 0.00 41 1012.4